Location: Bondula
(6.3703°N, 10.6756°W)
Time: 13:25:20
(UTC+00:00)

ARIANE 5 DEB (SYLDA) - Pass Details

Date: 22 October 2019
Orbit: 505 x 18266 km, 2.4° (Epoch: 20 November)

Event Time Altitude Azimuth Distance (km) Brightness Sun altitude
Exits shadow 04:38:35 31° 154° (SSE) 1,012 4.4 -27.8°
Drops below altitude 10° 04:40:41 10° 118° (ESE) 1,713 6.2 -27.3°
Sets 04:42:35 0° 108° (ESE) 2,600 7.5 -26.8°
